Regional Weather Roundup
Issued by NWS

Home | Current Version | Previous Version | Graphics & Text | Print | Product List | Glossary On
Versions: 1 2 3 4 5 6 7 8 9 10 11 12 13 14 15 16 17 18 19 20 21 22 23 24 25 26 27 28 29 30 31 32 33 34 35 36 37 38 39 40 41 42 43 44 45 46 47 48 49 50
000
ASUS43 KBIS 212110
RWRND

NORTH DAKOTA REGIONAL WEATHER ROUNDUP
NATIONAL WEATHER SERVICE BISMARCK ND
300 PM CST TUE FEB 21 2017

NOTE: "FAIR" INDICATES FEW OR NO CLOUDS BELOW 12,000 FEET WITH NO
SIGNIFICANT WEATHER AND/OR OBSTRUCTIONS TO VISIBILITY.


NDZ001>003-009>011-017-212200-
NORTHWEST NORTH DAKOTA

CITY           SKY/WX    TMP DP  RH WIND       PRES   REMARKS
WILLISTON      CLOUDY    41  32  70 SW7       29.65S
MINOT          FAIR      46  36  68 SW8       29.63S
MINOT AFB      CLOUDY    39  35  83 W10       29.62S
$$

NDZ018>021-031>035-040>046-212200-
SOUTHWEST NORTH DAKOTA

CITY           SKY/WX    TMP DP  RH WIND       PRES   REMARKS
BISMARCK       PTSUNNY   50  36  58 CALM      29.67F
DICKINSON      PTSUNNY   51  33  50 N10       29.65F
GARRISON         N/A     44  35  70 CALM      29.65S
HETTINGER ARPT SUNNY     63  29  27 W7        29.66F
$$

NDZ004>008-012>016-024-026-027-054-212200-
NORTHEAST NORTH DAKOTA

CITY           SKY/WX    TMP DP  RH WIND       PRES   REMARKS
GRAND FORKS    PTSUNNY   40  33  76 NW12      29.67R HAZE
GRND FRKS AFB  CLOUDY    36  35  98 N5        29.68R FOG
DEVILS LAKE    FAIR      39  33  79 W3        29.66R
$$

NDZ022-023-025-028>030-036>039-047>053-212200-
SOUTHEAST NORTH DAKOTA

CITY           SKY/WX    TMP DP  RH WIND       PRES   REMARKS
FARGO          MOSUNNY   47  39  74 W9        29.66S
JAMESTOWN      CLOUDY    46  38  73 SW9       29.67R
$$





USA.gov is the U.S. government's official web portal to all federal, state and local government web resources and services.